Location: Pasadena, ca
(34.1243°N, 118.1037°W)
Time: 19:19:07
(UTC-07:00)

Envisat - Pass Details

Date: 15 October 2017
Orbit: 764 x 766 km, 98.2° (Epoch: 23 October)

Event Time Altitude Azimuth Distance (km) Brightness Sun altitude
Exits shadow 21:43:41 11° 318° (NW) 2,208 5.9 -42.8°
Drops below altitude 10° 21:43:59 10° 320° (NW) 2,305 6.0 -42.9°
Sets 21:46:40 0° 333° (NNW) 3,235 6.8 -43.4°
